Pagrindinis puslapis
METAR-TAF:

METAR-TAF

Oro uostai :

Upsala, Švedija

platuma: 59-53N, ilguma: 017-36E, Aukštis: 21 m

Dabartinis oras

Ataskaita buvo paskelbta 37 minutes, ne 22:20 UTC
Ramus vėjas
Temperatūra 11°C
Drėgmė 94%
Slėgis 1013 hPa
Matomumas 10 km arba daugiau

METAR: ESCM 162220Z AUTO 00000KT 9999 NCD 11/10 Q1013

Laikas: 00:57 (22:57 UTC)


TAF: trūkstamas

Orai ataskaitas ir orų prognozės (METAR, TAF).

turimą stotys yra geltonos ir raudonos taškus žemėlapyje.

Perkelti pele per norėdami pamatyti stoties vardą.

Tada spustelėkite, norėdami matyti oro stebėjimo ir prognozės.

Norėdami pakeisti žemėlapį: spustelėkite ant žalios mygtukų su juodo kryžiaus žemyn,; žalią mygtuką su brūkšneliu, jei norite nutolinti; arba žalių rodyklių gretimoms žemėlapius.


METAR-TAF: